[[{"header":{"parameterUnit":"m.s-1","parameterCategory":2,"la1":30.2991,"la2":30.254,"lo1":-89.0895,"lo2":-89.0444,"dy":0.0017,"dx":0.0017,"nx":28,"ny":28,"refTime":"2024-05-24T09:00:00:Z","depth":"0","parameterNumber":2,"parameterNumberName":"U-component_of_CURRENTS"},"data":[0,0,0,0,0,0,0,0,0,0,0,0,0,0,0,0,0,0,0,0,0,0,0,0,0,0,0,0,0,0,0,0,0,0,0,0,0,0,0,0,0,0,0,0,0,0,0,0,0,0,0,0,0,0,0,0,0,0,-0.2795,-0.2795,0,-0.2817,-0.2817,-0.2817,-0.2787,-0.2786,-0.2785,-0.2785,-0.274,-0.274,-0.2739,0,0,0,0,0,0,0,0,0,0,0,0,0,-0.2728,-0.2729,-0.2795,-0.2795,-0.2796,-0.2817,-0.2817,-0.2817,-0.2787,-0.2786,-0.2785,-0.2784,-0.274,-0.274,-0.2739,0,0,0,0,0,0,0,0,0,0,0,0,0,-0.2752,-0.273,-0.2795,-0.2785,-0.2785,-0.2817,-0.2817,-0.2817,-0.2787,-0.2786,-0.2785,-0.2784,-0.274,-0.274,-0.2739,-0.276,0,0,-0.2737,-0.2737,0,0,0,0,0,0,0,0,-0.2751,-0.2754,-0.2786,-0.2786,-0.2786,-0.28,-0.2777,-0.2796,-0.2788,-0.2784,-0.2785,-0.2783,-0.2757,-0.2755,-0.2759,-0.2758,-0.2756,-0.2737,-0.2737,-0.2737,-0.2737,0,0,0,0,0,0,0,-0.2749,-0.2753,-0.2801,-0.2787,-0.2787,-0.2781,-0.2783,-0.2781,-0.2774,-0.2784,-0.2783,-0.279,-0.2756,-0.276,-0.2757,-0.2756,-0.2737,-0.2737,-0.2736,-0.2736,-0.2781,-0.2782,0,0,0,0,0,0,-0.2753,-0.2752,-0.28,-0.2802,-0.2768,-0.2783,-0.2785,-0.2795,-0.2775,-0.2772,-0.2791,-0.2788,-0.2761,-0.2758,-0.2756,-0.2784,-0.2737,-0.2736,-0.2736,-0.2779,-0.2781,-0.2783,0,0,0,0,0,0,-0.2752,-0.2758,-0.2799,-0.2779,-0.2784,-0.2786,-0.2797,-0.2796,-0.2794,-0.2781,-0.2776,-0.2789,-0.276,-0.2757,-0.2757,-0.2781,-0.2736,-0.2735,-0.2777,-0.278,-0.2782,-0.2836,0,0,0,0,0,0,-0.275,-0.2757,-0.276,-0.2779,-0.2786,-0.282,-0.2798,-0.2797,-0.2802,-0.2798,-0.2779,-0.2774,-0.2759,-0.2758,-0.2756,-0.2779,-0.2735,-0.2775,-0.2778,-0.2781,-0.2833,-0.284,-0.2847,0,0,0,0,0,-0.2747,-0.2757,-0.2761,-0.2766,-0.2792,-0.2821,-0.2824,-0.2818,-0.2803,-0.2809,-0.2797,-0.2774,-0.2776,-0.2759,-0.2756,-0.278,-0.2774,-0.2778,-0.2781,-0.2829,-0.2839,-0.2847,0,0,0,0,0,0,-0.2724,-0.2756,-0.276,-0.2777,-0.28,-0.2817,-0.282,-0.2821,-0.2818,-0.2809,-0.2788,-0.2784,-0.2797,-0.2784,-0.2765,-0.2804,-0.2774,-0.2777,-0.2812,-0.282,-0.2827,-0.2818,-0.2734,0,0,0,0,0,-0.2725,-0.2738,-0.2772,-0.2782,-0.2796,-0.2809,-0.2817,-0.2821,-0.2825,-0.2822,-0.2811,-0.2805,-0.2813,-0.281,-0.2812,-0.2828,-0.279,-0.2844,-0.2852,-0.2858,-0.285,-0.283,-0.2833,-0.2794,-0.2794,-0.2794,0,0,-0.2714,-0.2736,-0.274,-0.2778,-0.2791,-0.2826,-0.281,-0.2829,-0.2853,-0.2818,-0.2833,-0.2828,-0.2824,-0.2846,-0.285,-0.2833,-0.2848,-0.2862,-0.2867,-0.2856,-0.2834,-0.2837,-0.284,-0.2797,-0.2796,-0.2796,0,0,-0.2713,-0.2726,-0.2745,-0.2775,-0.2809,-0.2827,-0.2835,-0.286,-0.2864,-0.2887,-0.2873,-0.2877,-0.2885,-0.2889,-0.2892,-0.294,-0.2888,-0.2948,-0.2971,-0.2952,-0.2954,-0.2956,-0.29,-0.2896,-0.2949,-0.2949,-0.2949,0,-0.2699,-0.2735,-0.2753,-0.2791,-0.2818,-0.2831,-0.2868,-0.2886,-0.2905,-0.2911,-0.2896,-0.2912,-0.2908,-0.2934,-0.2955,-0.2955,-0.292,-0.2937,-0.2959,-0.296,-0.296,-0.2903,-0.2898,-0.2952,-0.2951,-0.2951,-0.2951,0,-0.2727,-0.2758,-0.2773,-0.2829,-0.2859,-0.289,-0.2931,-0.2949,-0.2953,-0.2967,-0.2985,-0.2978,-0.2982,-0.2994,-0.2988,-0.3005,-0.2969,-0.297,-0.2931,-0.2967,-0.2905,-0.2899,-0.2956,-0.2955,-0.2954,-0.2953,0,0,-0.2678,-0.2775,-0.2776,-0.2811,-0.2884,-0.2906,-0.2959,-0.3002,-0.3015,-0.3033,-0.3041,-0.3069,-0.305,-0.3053,-0.3045,-0.3032,-0.3009,-0.3005,-0.3002,-0.2938,-0.2934,-0.2825,-0.2807,-0.3012,-0.3012,-0.3011,-0.2883,0,-0.269,-0.2762,-0.2813,-0.2874,-0.2914,-0.2962,-0.3005,-0.3045,-0.306,-0.307,-0.3072,-0.3077,-0.3079,-0.307,-0.3065,-0.303,-0.2998,-0.3042,-0.2918,-0.2914,-0.2804,-0.2799,-0.2687,-0.2556,-0.2876,-0.2875,-0.2874,0,-0.2694,-0.2746,-0.2813,-0.2898,-0.2918,-0.2957,-0.3009,-0.3053,-0.3087,-0.3095,-0.3105,-0.3098,-0.3098,-0.308,-0.3029,-0.3056,-0.2995,-0.2957,-0.2951,-0.2824,-0.2794,-0.2576,-0.2532,-0.252,-0.2864,-0.2865,-0.2866,0,-0.2635,-0.2736,-0.2785,-0.2819,-0.2923,-0.2949,-0.2993,-0.3046,-0.3071,-0.3096,-0.3091,-0.3104,-0.3079,-0.3043,-0.2975,-0.3001,-0.2883,-0.2909,-0.2744,-0.2734,-0.2599,-0.2578,-0.2516,-0.2843,-0.2844,-0.2844,-0.2844,0,-0.2624,-0.2653,-0.2756,-0.2783,-0.2824,-0.291,-0.294,-0.2987,-0.3035,-0.3042,-0.3085,-0.306,-0.3067,-0.3007,-0.2959,-0.2816,-0.2867,-0.2728,-0.2694,-0.2614,-0.2597,-0.2547,-0.2584,-0.2839,-0.284,-0.2841,-0.2842,0,-0.2539,-0.262,-0.2665,-0.2767,-0.2797,-0.2814,-0.2901,-0.292,-0.2979,-0.2982,-0.2987,-0.3014,-0.2936,-0.2901,-0.2815,-0.2762,-0.2602,-0.2588,-0.2473,-0.2428,-0.2277,-0.2321,-0.2206,-0.2145,-0.2396,-0.2392,-0.2389,0,-0.25,-0.2518,-0.2614,-0.2636,-0.2677,-0.2727,-0.2762,-0.2865,-0.2887,-0.2931,-0.2915,-0.2867,-0.2789,-0.2628,-0.2533,-0.2399,-0.2426,-0.222,-0.2257,-0.223,-0.2256,-0.2304,-0.2267,-0.2094,-0.2089,-0.2085,-0.2082,0,-0.2401,-0.243,-0.2471,-0.2518,-0.2558,-0.2597,-0.2654,-0.2665,-0.2766,-0.2757,-0.2713,-0.2656,-0.2532,-0.2358,-0.2212,-0.2124,-0.2177,-0.2128,-0.214,-0.2035,-0.2044,-0.1981,-0.2208,-0.2044,-0.2048,-0.2051,-0.2053,-0.2054,-0.2294,-0.2291,-0.2343,-0.2372,-0.2419,-0.2424,-0.2375,-0.245,-0.2434,-0.2372,-0.2451,-0.2307,-0.2236,-0.2012,-0.1934,-0.1779,-0.1871,-0.173,-0.1787,-0.1839,-0.1779,-0.19,-0.1684,-0.1685,-0.1687,-0.1688,-0.1689,0,-0.2149,-0.217,-0.2194,-0.2224,-0.2206,-0.227,-0.2264,-0.216,-0.2064,-0.2067,-0.1989,-0.1895,-0.1748,-0.1706,-0.1581,-0.1489,-0.1484,-0.1452,-0.1521,-0.1501,-0.1619,-0.1604,-0.1312,-0.1312,-0.1312,-0.1312,-0.1312,-0.1312,-0.2074,-0.2045,-0.2064,-0.1992,-0.2,-0.1842,-0.1772,-0.1662,-0.1583,-0.1411,-0.137,-0.1337,-0.1422,-0.1564,-0.1462,-0.1377,-0.1382,-0.1311,-0.1367,-0.1495,-0.1527,-0.1558,-0.1552,-0.1254,-0.1254,-0.1188,-0.1187,-0.1187]},{"header":{"parameterUnit":"m.s-1","parameterCategory":2,"la1":30.2991,"la2":30.254,"lo1":-89.0895,"lo2":-89.0444,"dy":0.0017,"dx":0.0017,"nx":28,"ny":28,"refTime":"2024-05-24T09:00:00:Z","depth":"0","parameterNumber":3,"parameterNumberName":"V-component_of_CURRENTS"},"data":[0,0,0,0,0,0,0,0,0,0,0,0,0,0,0,0,0,0,0,0,0,0,0,0,0,0,0,0,0,0,0,0,0,0,0,0,0,0,0,0,0,0,0,0,0,0,0,0,0,0,0,0,0,0,0,0,0,0,-0.0203,-0.0203,0,-0.0117,-0.0116,-0.0114,-0.0041,-0.004,-0.004,-0.0039,0.0105,0.0109,0.0112,0,0,0,0,0,0,0,0,0,0,0,0,0,-0.025,-0.025,-0.0204,-0.0203,-0.0202,-0.0117,-0.0116,-0.0114,-0.0041,-0.004,-0.0039,-0.0039,0.0104,0.0108,0.0112,0,0,0,0,0,0,0,0,0,0,0,0,0,-0.0202,-0.025,-0.0204,-0.0156,-0.0151,-0.0117,-0.0115,-0.0114,-0.0041,-0.004,-0.0039,-0.0038,0.0103,0.0108,0.0113,0.0123,0,0,0.0128,0.013,0,0,0,0,0,0,0,0,-0.0205,-0.02,-0.0164,-0.016,-0.0154,-0.009,-0.0079,-0.0032,-0.0041,-0.0081,-0.0039,-0.0038,0.0043,0.0053,0.0069,0.013,0.0136,0.0128,0.0131,0.0133,0.0134,0,0,0,0,0,0,0,-0.0208,-0.0203,-0.0167,-0.0163,-0.0157,-0.012,-0.0113,-0.007,-0.0023,-0.0078,-0.0073,-0.0066,0.0047,0.0064,0.0073,0.0139,0.0128,0.0132,0.0135,0.0137,0.0244,0.0244,0,0,0,0,0,0,-0.0227,-0.0207,-0.017,-0.0165,-0.0179,-0.0121,-0.0112,-0.011,-0.0024,-0.0011,-0.0067,-0.0063,0.0055,0.0068,0.0079,0.0113,0.0133,0.0138,0.014,0.0244,0.0244,0.0244,0,0,0,0,0,0,-0.0228,-0.0224,-0.0174,-0.0185,-0.0176,-0.0122,-0.012,-0.0109,-0.0091,-0.0017,-0.0002,-0.006,0.0057,0.0072,0.0116,0.0118,0.014,0.0144,0.0244,0.0244,0.0244,0.017,0,0,0,0,0,0,-0.023,-0.0226,-0.0233,-0.0186,-0.0176,-0.0164,-0.012,-0.0108,-0.009,-0.0083,-0.0007,0.0008,0.0059,0.0109,0.0121,0.0125,0.0148,0.0245,0.0244,0.0244,0.0173,0.0168,0.0163,0,0,0,0,0,-0.0232,-0.0251,-0.0234,-0.023,-0.0188,-0.0165,-0.0157,-0.0113,-0.0091,-0.0091,-0.0034,0.0005,0.0117,0.0112,0.0127,0.0133,0.0245,0.0244,0.0244,0.0175,0.0169,0.0164,0,0,0,0,0,0,-0.0277,-0.0244,-0.0225,-0.0233,-0.0205,-0.0154,-0.0153,-0.0122,-0.0079,-0.0071,0.0003,0.0021,0.0059,0.0104,0.0096,0.0163,0.0188,0.0191,0.013,0.0125,0.012,0.0105,0.0152,0,0,0,0,0,-0.0292,-0.0297,-0.0256,-0.0264,-0.0254,-0.0205,-0.0191,-0.0162,-0.0118,-0.0098,-0.0043,0.0017,0.0069,0.0102,0.0147,0.0183,0.024,0.0198,0.0193,0.0189,0.0186,0.028,0.0283,0.0244,0.0244,0.0244,0,0,-0.0311,-0.0295,-0.0297,-0.0274,-0.0248,-0.0242,-0.0194,-0.0182,-0.0167,-0.0089,-0.0057,-0.0004,0.0072,0.0112,0.0134,0.0152,0.0227,0.0188,0.0184,0.0184,0.028,0.0284,0.0288,0.0243,0.0243,0.0243,0,0,-0.0361,-0.034,-0.0362,-0.0341,-0.0314,-0.0279,-0.028,-0.0233,-0.0203,-0.0169,-0.0106,-0.0049,0.0019,0.0084,0.0125,0.0122,0.0191,0.0131,0.0105,0.0196,0.02,0.0204,0.0267,0.0277,0.0137,0.0137,0.0137,0,-0.0388,-0.0404,-0.0365,-0.0376,-0.0362,-0.0301,-0.0312,-0.0274,-0.0217,-0.0185,-0.0171,-0.0049,0.0011,0.0087,0.0084,0.0113,0.0163,0.0119,0.019,0.0195,0.0201,0.0265,0.0277,0.0134,0.0134,0.0135,0.0135,0,-0.0446,-0.0455,-0.0467,-0.0455,-0.0434,-0.0436,-0.0377,-0.035,-0.0307,-0.0255,-0.0186,-0.0104,-0.0021,0.0002,0.0042,0.0113,0.0132,0.0165,0.0202,0.0201,0.0267,0.0282,0.0129,0.013,0.0131,0.0132,0,0,-0.0515,-0.0511,-0.0515,-0.0516,-0.0474,-0.0462,-0.0434,-0.0382,-0.035,-0.0287,-0.0234,-0.0146,-0.0089,-0.004,0.0026,0.0098,0.0177,0.0138,0.0145,0.0195,0.0357,0.0396,0.0416,0.0222,0.0225,0.0226,0.0382,0,-0.0573,-0.0618,-0.0588,-0.0607,-0.0617,-0.0544,-0.0518,-0.0455,-0.0389,-0.0321,-0.0216,-0.0148,-0.0106,-0.0066,0.0015,0.0141,0.0214,0.013,0.0355,0.0362,0.0393,0.0434,0.0468,0.0612,0.0396,0.0399,0.0401,0,-0.0639,-0.0656,-0.0698,-0.0673,-0.0668,-0.0662,-0.0592,-0.056,-0.0442,-0.0386,-0.0291,-0.0203,-0.0082,-0.0051,0.0163,0.0106,0.022,0.031,0.032,0.0393,0.0429,0.0583,0.0647,0.0794,0.0424,0.0422,0.042,0,-0.0708,-0.0726,-0.0762,-0.0756,-0.0721,-0.0711,-0.0681,-0.0584,-0.0541,-0.0423,-0.0375,-0.0219,-0.0128,0.0027,0.0216,0.0197,0.0449,0.0459,0.0598,0.0601,0.0695,0.0702,0.0927,0.061,0.061,0.0609,0.0609,0,-0.0779,-0.0802,-0.0801,-0.0817,-0.0837,-0.078,-0.0766,-0.0708,-0.0607,-0.0542,-0.0417,-0.0325,-0.0103,0.007,0.0222,0.0462,0.0469,0.0605,0.0657,0.0667,0.067,0.0854,0.0894,0.0615,0.0614,0.0613,0.0612,0,-0.0849,-0.0853,-0.0889,-0.0878,-0.0875,-0.0889,-0.0838,-0.0813,-0.0718,-0.0627,-0.059,-0.0376,-0.0144,0.007,0.0353,0.0483,0.0798,0.0774,0.0755,0.0801,0.1048,0.1081,0.1338,0.1446,0.0953,0.0955,0.0957,0,-0.089,-0.092,-0.0948,-0.0975,-0.0977,-0.0982,-0.0975,-0.0884,-0.0836,-0.0647,-0.0597,-0.0359,-0.015,0.0258,0.0531,0.0819,0.0916,0.0996,0.0971,0.1084,0.116,0.1172,0.1245,0.1063,0.1065,0.1067,0.1069,0,-0.0954,-0.0968,-0.1002,-0.1063,-0.1082,-0.1087,-0.1059,-0.102,-0.0881,-0.0775,-0.0557,-0.0373,0.0027,0.0405,0.0755,0.0912,0.1106,0.1045,0.1195,0.1294,0.1294,0.1414,0.0911,0.1087,0.1085,0.1084,0.1083,0.1082,-0.0995,-0.1045,-0.1092,-0.1139,-0.1164,-0.115,-0.1076,-0.1002,-0.0881,-0.059,-0.051,-0.0135,0.0293,0.0814,0.0999,0.1351,0.1295,0.1439,0.1477,0.1485,0.1575,0.109,0.1299,0.1299,0.1298,0.1298,0.1298,0,-0.104,-0.109,-0.1154,-0.1192,-0.1196,-0.1189,-0.1085,-0.093,-0.071,-0.0463,-0.0208,0.0315,0.0753,0.1147,0.1585,0.1773,0.182,0.1846,0.1886,0.1948,0.1566,0.1556,0.1792,0.1792,0.1791,0.1791,0.1791,0.1791,-0.1066,-0.1142,-0.1175,-0.1193,-0.1189,-0.1043,-0.0927,-0.07,-0.0449,0.0028,0.0407,0.066,0.1086,0.1706,0.2115,0.2147,0.2321,0.228,0.2391,0.2121,0.2086,0.2052,0.2056,0.2392,0.2393,0.2771,0.2775,0.2777]}],[{"header":{"parameterUnit":"m.s-1","parameterCategory":2,"la1":30.2991,"la2":30.254,"lo1":-89.0895,"lo2":-89.0444,"dy":0.0017,"dx":0.0017,"nx":28,"ny":28,"refTime":"2024-05-24T09:00:00:Z","depth":"2","parameterNumber":2,"parameterNumberName":"U-component_of_CURRENTS"},"data":[0,0,0,0,0,0,0,0,0,0,0,0,0,0,0,0,0,0,0,0,0,0,0,0,0,0,0,0,0,0,0,0,0,0,0,0,0,0,0,0,0,0,0,0,0,0,0,0,0,0,0,0,0,0,0,0,0,0,-0.2575,-0.2576,0,-0.2605,-0.2605,-0.2605,-0.2583,-0.2582,-0.2581,-0.258,-0.2551,-0.2551,-0.2551,0,0,0,0,0,0,0,0,0,0,0,0,0,-0.2502,-0.2503,-0.2575,-0.2576,-0.2576,-0.2605,-0.2605,-0.2605,-0.2583,-0.2582,-0.2581,-0.258,-0.2551,-0.2551,-0.2551,0,0,0,0,0,0,0,0,0,0,0,0,0,-0.2531,-0.2504,-0.2575,-0.257,-0.257,-0.2605,-0.2605,-0.2605,-0.2583,-0.2582,-0.2581,-0.258,-0.2551,-0.2551,-0.2551,-0.2574,0,0,-0.2551,-0.2551,0,0,0,0,0,0,0,0,-0.2529,-0.2533,-0.257,-0.2571,-0.2571,-0.2591,-0.2569,-0.2593,-0.2583,-0.2576,-0.258,-0.2579,-0.2561,-0.256,-0.2566,-0.2572,-0.2571,-0.2551,-0.2551,-0.2551,-0.2551,0,0,0,0,0,0,0,-0.2527,-0.2532,-0.2585,-0.2571,-0.2571,-0.2568,-0.257,-0.2573,-0.2572,-0.2576,-0.2575,-0.2583,-0.256,-0.2566,-0.2565,-0.2571,-0.2551,-0.2551,-0.2551,-0.255,-0.2599,-0.2601,0,0,0,0,0,0,-0.253,-0.253,-0.2584,-0.2586,-0.2549,-0.257,-0.2573,-0.2584,-0.2573,-0.2571,-0.2584,-0.2582,-0.2567,-0.2565,-0.2564,-0.2596,-0.2551,-0.255,-0.255,-0.2598,-0.26,-0.2601,0,0,0,0,0,0,-0.2528,-0.2534,-0.2583,-0.256,-0.2566,-0.2573,-0.2585,-0.2585,-0.2589,-0.258,-0.2576,-0.2587,-0.2566,-0.2564,-0.2571,-0.2595,-0.255,-0.255,-0.2596,-0.2599,-0.26,-0.2657,0,0,0,0,0,0,-0.2526,-0.2534,-0.254,-0.256,-0.2568,-0.2607,-0.2587,-0.2587,-0.2596,-0.2594,-0.2582,-0.2578,-0.2565,-0.2572,-0.2571,-0.2594,-0.255,-0.2595,-0.2597,-0.26,-0.2654,-0.2661,-0.2667,0,0,0,0,0,-0.2523,-0.2537,-0.254,-0.2546,-0.2577,-0.2608,-0.2611,-0.261,-0.2598,-0.2607,-0.2599,-0.2578,-0.2587,-0.2573,-0.2572,-0.2595,-0.2594,-0.2597,-0.26,-0.265,-0.2659,-0.2667,0,0,0,0,0,0,-0.2505,-0.2537,-0.254,-0.2562,-0.2585,-0.2605,-0.2612,-0.2615,-0.2618,-0.2611,-0.2594,-0.2591,-0.2608,-0.2596,-0.258,-0.2618,-0.2588,-0.2591,-0.2627,-0.2635,-0.2642,-0.2634,-0.255,0,0,0,0,0,-0.2507,-0.2523,-0.2556,-0.2571,-0.2585,-0.26,-0.2611,-0.2616,-0.2624,-0.2624,-0.2618,-0.2615,-0.2623,-0.2623,-0.2626,-0.2645,-0.2612,-0.266,-0.2667,-0.2673,-0.2667,-0.265,-0.2654,-0.2611,-0.2611,-0.2611,0,0,-0.2501,-0.2522,-0.253,-0.2568,-0.2582,-0.2615,-0.2603,-0.2626,-0.2649,-0.2621,-0.2641,-0.2638,-0.2634,-0.2657,-0.2664,-0.2647,-0.2667,-0.2677,-0.2682,-0.2672,-0.2653,-0.2657,-0.266,-0.2613,-0.2613,-0.2613,0,0,-0.2506,-0.2522,-0.2541,-0.257,-0.2605,-0.2622,-0.2631,-0.2659,-0.2665,-0.2692,-0.268,-0.2688,-0.2699,-0.2702,-0.2705,-0.2751,-0.2705,-0.2757,-0.2782,-0.2766,-0.2769,-0.2771,-0.2724,-0.2722,-0.2758,-0.2758,-0.2759,0,-0.2497,-0.2531,-0.2551,-0.2586,-0.2611,-0.2628,-0.2661,-0.2682,-0.2706,-0.2714,-0.2703,-0.2723,-0.2721,-0.2745,-0.2765,-0.2766,-0.2736,-0.2751,-0.2773,-0.2775,-0.2776,-0.2728,-0.2724,-0.2762,-0.2761,-0.2761,-0.2761,0,-0.2525,-0.2556,-0.2572,-0.2622,-0.2652,-0.2683,-0.2722,-0.2744,-0.2752,-0.2767,-0.2788,-0.2786,-0.2792,-0.2804,-0.28,-0.2817,-0.2786,-0.2784,-0.2748,-0.2783,-0.273,-0.2726,-0.2766,-0.2765,-0.2764,-0.2763,0,0,-0.2487,-0.2575,-0.2577,-0.2607,-0.2675,-0.2697,-0.2748,-0.279,-0.2805,-0.2828,-0.2839,-0.2869,-0.2856,-0.2858,-0.2853,-0.2844,-0.2832,-0.2821,-0.2819,-0.2767,-0.2771,-0.2665,-0.2649,-0.2833,-0.2833,-0.2833,-0.2727,0,-0.2499,-0.2563,-0.2609,-0.2664,-0.27,-0.2745,-0.2786,-0.2826,-0.2847,-0.2862,-0.2868,-0.2878,-0.2882,-0.2878,-0.2877,-0.2849,-0.2824,-0.2859,-0.2751,-0.2747,-0.2643,-0.2642,-0.2472,-0.2356,-0.2722,-0.2721,-0.272,0,-0.2503,-0.2549,-0.2608,-0.2683,-0.2701,-0.2737,-0.2789,-0.2831,-0.287,-0.2884,-0.2899,-0.2898,-0.2905,-0.2891,-0.2853,-0.2874,-0.2825,-0.2793,-0.2788,-0.2664,-0.2633,-0.2383,-0.2332,-0.2712,-0.2712,-0.2713,-0.2713,0,-0.2448,-0.2538,-0.258,-0.2611,-0.2704,-0.2729,-0.2771,-0.2826,-0.2851,-0.2887,-0.289,-0.2905,-0.289,-0.2862,-0.2811,-0.2831,-0.2736,-0.2755,-0.2604,-0.2595,-0.2413,-0.2388,-0.2702,-0.2702,-0.2702,-0.2702,-0.2703,0,-0.2436,-0.2462,-0.2555,-0.2579,-0.2613,-0.2694,-0.2724,-0.277,-0.2822,-0.2832,-0.2885,-0.2869,-0.2881,-0.2836,-0.2798,-0.2673,-0.2723,-0.2591,-0.256,-0.2427,-0.2406,-0.2692,-0.2692,-0.2698,-0.2699,-0.27,-0.2701,0,-0.2357,-0.2431,-0.2469,-0.2562,-0.2588,-0.2604,-0.2687,-0.2707,-0.2773,-0.2782,-0.2792,-0.283,-0.2769,-0.2745,-0.2676,-0.2626,-0.2538,-0.2473,-0.2301,-0.2252,-0.241,-0.2415,-0.2303,-0.2299,-0.2295,-0.2291,-0.2289,0,-0.2322,-0.2336,-0.242,-0.244,-0.2478,-0.2525,-0.2556,-0.2655,-0.268,-0.2737,-0.2726,-0.2697,-0.2631,-0.2497,-0.2407,-0.229,-0.2388,-0.2067,-0.2082,-0.2388,-0.2369,-0.238,-0.239,-0.1859,-0.1853,-0.1848,-0.1844,0,-0.2229,-0.2254,-0.2289,-0.2328,-0.2363,-0.2399,-0.2455,-0.2465,-0.2565,-0.2571,-0.2542,-0.2495,-0.2387,-0.219,-0.2061,-0.1981,-0.2085,-0.1961,-0.2308,-0.1995,-0.1962,-0.1947,-0.1972,-0.18,-0.1804,-0.1807,-0.181,-0.1811,-0.2132,-0.2125,-0.2167,-0.2185,-0.2229,-0.2234,-0.2194,-0.2262,-0.2254,-0.2213,-0.2287,-0.2142,-0.2117,-0.1811,-0.1702,-0.1618,-0.1766,-0.1696,-0.1714,-0.1737,-0.1713,-0.1677,-0.1454,-0.1456,-0.1458,-0.146,-0.1461,0,-0.1999,-0.201,-0.2023,-0.2031,-0.1995,-0.2077,-0.2089,-0.2012,-0.1928,-0.1941,-0.1874,-0.1633,-0.1496,-0.147,-0.1276,-0.1241,-0.1258,-0.1186,-0.1224,-0.1266,-0.1305,-0.1264,-0.0882,-0.0881,-0.0879,-0.0878,0,0,-0.1931,-0.189,-0.1892,-0.1779,-0.1779,-0.1653,-0.1609,-0.1549,-0.1512,-0.1386,-0.1309,-0.1384,-0.1412,-0.1144,-0.109,-0.0956,-0.1101,-0.09,-0.1362,-0.1449,-0.1485,-0.1592,-0.1574,0,0,0,0,0]},{"header":{"parameterUnit":"m.s-1","parameterCategory":2,"la1":30.2991,"la2":30.254,"lo1":-89.0895,"lo2":-89.0444,"dy":0.0017,"dx":0.0017,"nx":28,"ny":28,"refTime":"2024-05-24T09:00:00:Z","depth":"2","parameterNumber":3,"parameterNumberName":"V-component_of_CURRENTS"},"data":[0,0,0,0,0,0,0,0,0,0,0,0,0,0,0,0,0,0,0,0,0,0,0,0,0,0,0,0,0,0,0,0,0,0,0,0,0,0,0,0,0,0,0,0,0,0,0,0,0,0,0,0,0,0,0,0,0,0,-0.0293,-0.0292,0,-0.0209,-0.0207,-0.0206,-0.0146,-0.0146,-0.0145,-0.0145,-0.0013,-0.001,-0.0006,0,0,0,0,0,0,0,0,0,0,0,0,0,-0.035,-0.035,-0.0293,-0.0292,-0.0291,-0.0209,-0.0207,-0.0206,-0.0146,-0.0145,-0.0145,-0.0145,-0.0014,-0.001,-0.0006,0,0,0,0,0,0,0,0,0,0,0,0,0,-0.03,-0.035,-0.0293,-0.0252,-0.0248,-0.0209,-0.0207,-0.0206,-0.0146,-0.0145,-0.0145,-0.0144,-0.0015,-0.001,-0.0006,0.0013,0,0,0.0009,0.0011,0,0,0,0,0,0,0,0,-0.0303,-0.0298,-0.0259,-0.0255,-0.025,-0.0189,-0.0179,-0.0131,-0.0146,-0.0183,-0.0145,-0.0144,-0.0068,-0.0059,-0.0043,0.0019,0.0025,0.0009,0.0012,0.0014,0.0016,0,0,0,0,0,0,0,-0.0307,-0.0301,-0.0258,-0.0258,-0.0253,-0.0221,-0.0213,-0.017,-0.0128,-0.018,-0.0176,-0.0169,-0.0065,-0.0048,-0.0039,0.0027,0.0009,0.0014,0.0017,0.0018,0.0125,0.0125,0,0,0,0,0,0,-0.0324,-0.0305,-0.0261,-0.0256,-0.0278,-0.022,-0.0212,-0.0208,-0.0129,-0.0117,-0.0169,-0.0166,-0.0056,-0.0045,-0.0034,-0.0003,0.0014,0.0019,0.0022,0.0125,0.0125,0.0125,0,0,0,0,0,0,-0.0325,-0.0321,-0.0264,-0.0279,-0.027,-0.0221,-0.0216,-0.0206,-0.0189,-0.0122,-0.0109,-0.0162,-0.0055,-0.0041,0.0004,0.0002,0.0021,0.0025,0.0125,0.0125,0.0125,0.0057,0,0,0,0,0,0,-0.0327,-0.0322,-0.0326,-0.0281,-0.027,-0.025,-0.0216,-0.0205,-0.0186,-0.0181,-0.0111,-0.0099,-0.0054,-0.0004,0.0008,0.0009,0.0029,0.0125,0.0125,0.0125,0.006,0.0055,0.0051,0,0,0,0,0,-0.033,-0.034,-0.0327,-0.0322,-0.0277,-0.0251,-0.0242,-0.0203,-0.0187,-0.0185,-0.0134,-0.0101,0.0004,-0.0,0.0014,0.0017,0.0125,0.0125,0.0125,0.0062,0.0056,0.0051,0,0,0,0,0,0,-0.0367,-0.0334,-0.0318,-0.0318,-0.0291,-0.0241,-0.0237,-0.021,-0.0169,-0.0164,-0.0099,-0.0083,-0.0047,-0.0006,-0.0012,0.0047,0.0069,0.0072,0.0016,0.0012,0.0007,-0.0008,0.0033,0,0,0,0,0,-0.0379,-0.0379,-0.034,-0.0341,-0.033,-0.0285,-0.027,-0.0245,-0.0203,-0.0185,-0.0136,-0.0082,-0.0036,-0.0006,0.0036,0.0072,0.0119,0.0083,0.0079,0.0075,0.0072,0.0147,0.0149,0.0125,0.0125,0.0125,0,0,-0.0394,-0.0377,-0.0376,-0.0349,-0.0324,-0.0317,-0.0275,-0.0259,-0.0247,-0.0176,-0.0147,-0.0099,-0.0032,0.0005,0.0026,0.0041,0.0104,0.0074,0.0071,0.007,0.0147,0.015,0.0152,0.0124,0.0124,0.0124,0,0,-0.0431,-0.041,-0.0424,-0.0404,-0.0377,-0.0345,-0.0345,-0.03,-0.0274,-0.0241,-0.0188,-0.0138,-0.0073,-0.0019,0.0016,0.0016,0.0073,0.0024,-0.0001,0.0072,0.0074,0.0077,0.0128,0.0136,0.0029,0.0029,0.0029,0,-0.0453,-0.0463,-0.0425,-0.0431,-0.0419,-0.0364,-0.0373,-0.0338,-0.0283,-0.0259,-0.0243,-0.0135,-0.0081,-0.0019,-0.0021,0.0007,0.0048,0.0012,0.0066,0.007,0.0074,0.0126,0.0136,0.0025,0.0026,0.0026,0.0026,0,-0.0497,-0.0504,-0.051,-0.0499,-0.0479,-0.0478,-0.0426,-0.0403,-0.0366,-0.0322,-0.0263,-0.0185,-0.0116,-0.0094,-0.0056,-0.0001,0.0017,0.0045,0.0076,0.0073,0.0127,0.0138,0.0021,0.0022,0.0023,0.0024,0,0,-0.0551,-0.0545,-0.0549,-0.0555,-0.0515,-0.0505,-0.0481,-0.0439,-0.0417,-0.0356,-0.0316,-0.0234,-0.0184,-0.0142,-0.0082,-0.0019,0.0042,0.0017,0.0022,0.0061,0.0187,0.0216,0.0232,0.008,0.0082,0.0083,0.0208,0,-0.06,-0.064,-0.0611,-0.0632,-0.0643,-0.0581,-0.0561,-0.051,-0.0453,-0.0399,-0.0305,-0.0249,-0.0203,-0.017,-0.0099,0.001,0.0071,0.0005,0.019,0.0195,0.0218,0.0246,0.0209,0.0319,0.022,0.0222,0.0223,0,-0.0655,-0.0672,-0.0712,-0.0699,-0.0696,-0.0692,-0.0642,-0.0616,-0.0519,-0.0471,-0.0389,-0.0312,-0.0208,-0.0173,0.0013,-0.0033,0.0065,0.0147,0.0155,0.0214,0.0247,0.0311,0.0344,0.0243,0.0242,0.024,0.0239,0,-0.0721,-0.0739,-0.0776,-0.0772,-0.0747,-0.0744,-0.0722,-0.0644,-0.0612,-0.0515,-0.0475,-0.0342,-0.0265,-0.0128,0.0043,0.0031,0.0247,0.0259,0.0376,0.0378,0.0401,0.0402,0.0385,0.0385,0.0385,0.0385,0.0384,0,-0.0785,-0.0811,-0.0814,-0.0831,-0.086,-0.0811,-0.081,-0.0763,-0.0682,-0.0634,-0.0521,-0.0443,-0.025,-0.01,0.004,0.0249,0.0254,0.0379,0.0422,0.0375,0.0372,0.035,0.0344,0.0389,0.0388,0.0387,0.0387,0,-0.0851,-0.0856,-0.0896,-0.0894,-0.0895,-0.0915,-0.0881,-0.0867,-0.0786,-0.0716,-0.0688,-0.0504,-0.0304,-0.0111,0.0134,0.0253,0.044,0.0509,0.0429,0.046,0.0518,0.0507,0.0651,0.0653,0.0655,0.0657,0.0658,0,-0.089,-0.092,-0.0954,-0.0985,-0.099,-0.1005,-0.1007,-0.0934,-0.0899,-0.0741,-0.0702,-0.0503,-0.0327,0.0031,0.0267,0.0522,0.0509,0.0617,0.0593,0.0523,0.055,0.0536,0.0523,0.0591,0.0592,0.0593,0.0593,0,-0.0953,-0.0967,-0.1003,-0.1071,-0.1097,-0.1114,-0.11,-0.1079,-0.0965,-0.0872,-0.0691,-0.0538,-0.0192,0.0103,0.0409,0.0541,0.0571,0.0637,0.0616,0.0524,0.0476,0.0499,0.0486,0.0598,0.0598,0.0597,0.0597,0.0597,-0.0995,-0.1045,-0.1095,-0.1152,-0.1186,-0.1197,-0.12,-0.1134,-0.1048,-0.0863,-0.0695,-0.0424,-0.0162,0.0301,0.0506,0.0675,0.0672,0.0703,0.0698,0.0692,0.0657,0.0615,0.0756,0.0756,0.0756,0.0757,0.0757,0,-0.1046,-0.1099,-0.1166,-0.1231,-0.1274,-0.127,-0.124,-0.1203,-0.1086,-0.0863,-0.0648,-0.0298,0.0041,0.0298,0.059,0.0764,0.073,0.0763,0.0688,0.0682,0.0677,0.0637,0.0733,0.0733,0.0734,0.0734,0,0,-0.1077,-0.1158,-0.1194,-0.1283,-0.1325,-0.1353,-0.1333,-0.1232,-0.1078,-0.083,-0.0589,-0.0282,0.005,0.0256,0.0462,0.0604,0.0582,0.0599,0.0597,0.0473,0.0466,0.0622,0.0552,0,0,0,0,0]}],[{"header":{"parameterUnit":"m.s-1","parameterCategory":2,"la1":30.2991,"la2":30.254,"lo1":-89.0895,"lo2":-89.0444,"dy":0.0017,"dx":0.0017,"nx":28,"ny":28,"refTime":"2024-05-24T09:00:00:Z","depth":"4","parameterNumber":2,"parameterNumberName":"U-component_of_CURRENTS"},"data":[0,0,0,0,0,0,0,0,0,0,0,0,0,0,0,0,0,0,0,0,0,0,0,0,0,0,0,0,0,0,0,0,0,0,0,0,0,0,0,0,0,0,0,0,0,0,0,0,0,0,0,0,0,0,0,0,0,0,-0.1837,-0.1838,0,-0.1911,-0.1911,-0.1912,-0.195,-0.195,-0.195,-0.195,-0.2001,-0.2002,-0.2003,0,0,0,0,0,0,0,0,0,0,0,0,0,-0.1729,-0.1731,-0.1837,-0.1838,-0.1839,-0.1911,-0.1911,-0.1912,-0.195,-0.195,-0.195,-0.195,-0.2001,-0.2002,-0.2003,0,0,0,0,0,0,0,0,0,0,0,0,0,-0.1785,-0.1732,-0.1837,-0.1868,-0.1872,-0.191,-0.1911,-0.1912,-0.195,-0.195,-0.195,-0.195,-0.2,-0.2002,-0.2004,-0.2008,0,0,-0.2009,-0.201,0,0,0,0,0,0,0,0,-0.1782,-0.1789,-0.1862,-0.1866,-0.187,-0.1923,-0.1892,-0.1944,-0.1949,-0.1918,-0.195,-0.1951,-0.1974,-0.1978,-0.1989,-0.201,-0.2013,-0.2009,-0.201,-0.2011,-0.2011,0,0,0,0,0,0,0,-0.1778,-0.1786,-0.1864,-0.1864,-0.1868,-0.1878,-0.1886,-0.1902,-0.1941,-0.1921,-0.1924,-0.1935,-0.1976,-0.1987,-0.199,-0.2013,-0.2009,-0.2011,-0.2012,-0.2012,-0.2111,-0.2113,0,0,0,0,0,0,-0.1773,-0.1782,-0.1862,-0.1867,-0.1828,-0.188,-0.1889,-0.1904,-0.1942,-0.1949,-0.1935,-0.1937,-0.1984,-0.1988,-0.1992,-0.2069,-0.2011,-0.2013,-0.2014,-0.211,-0.2112,-0.2113,0,0,0,0,0,0,-0.177,-0.1779,-0.1859,-0.1827,-0.1838,-0.1882,-0.1898,-0.1905,-0.1947,-0.1953,-0.1959,-0.1972,-0.1984,-0.1989,-0.2035,-0.2069,-0.2013,-0.2015,-0.2108,-0.211,-0.2112,-0.2179,0,0,0,0,0,0,-0.1767,-0.1778,-0.1803,-0.1827,-0.184,-0.1902,-0.1899,-0.1907,-0.1952,-0.1956,-0.1987,-0.199,-0.1985,-0.2033,-0.2037,-0.207,-0.2016,-0.2106,-0.2109,-0.2112,-0.2175,-0.2183,-0.219,0,0,0,0,0,-0.1763,-0.179,-0.1803,-0.1814,-0.1868,-0.1904,-0.1912,-0.1942,-0.1954,-0.1979,-0.2002,-0.1991,-0.2054,-0.2036,-0.204,-0.2075,-0.2104,-0.2108,-0.2111,-0.2171,-0.2181,-0.219,0,0,0,0,0,0,-0.1757,-0.1797,-0.1812,-0.1852,-0.1886,-0.1912,-0.1943,-0.1961,-0.2,-0.2012,-0.2014,-0.2019,-0.207,-0.2065,-0.2045,-0.2112,-0.2076,-0.2081,-0.212,-0.213,-0.2138,-0.2126,-0.2018,0,0,0,0,0,-0.1767,-0.1799,-0.1834,-0.1869,-0.1889,-0.1922,-0.1948,-0.1969,-0.1999,-0.2019,-0.204,-0.2062,-0.2084,-0.2102,-0.2119,-0.2159,-0.2127,-0.2183,-0.2191,-0.2197,-0.2191,-0.2181,-0.2186,-0.2125,-0.2125,-0.2125,0,0,-0.1775,-0.1802,-0.1822,-0.1871,-0.1901,-0.1938,-0.1939,-0.1988,-0.2024,-0.2017,-0.2081,-0.2095,-0.2101,-0.2145,-0.2167,-0.2149,-0.2199,-0.2202,-0.2208,-0.2197,-0.2185,-0.2191,-0.2196,-0.2127,-0.2127,-0.2126,0,0,-0.1796,-0.1833,-0.1864,-0.1898,-0.1951,-0.1971,-0.1992,-0.2039,-0.2069,-0.2125,-0.2128,-0.2162,-0.2204,-0.221,-0.2217,-0.2279,-0.2241,-0.2293,-0.2325,-0.2317,-0.2321,-0.2324,-0.2288,-0.2287,-0.2297,-0.2297,-0.2297,0,-0.1806,-0.1848,-0.188,-0.1918,-0.1951,-0.1989,-0.2029,-0.2065,-0.2123,-0.2146,-0.2157,-0.2215,-0.2229,-0.2262,-0.229,-0.2296,-0.2275,-0.2289,-0.2325,-0.2328,-0.233,-0.2292,-0.2291,-0.2301,-0.23,-0.23,-0.23,0,-0.1839,-0.1886,-0.191,-0.1969,-0.2008,-0.2052,-0.21,-0.2147,-0.2188,-0.2215,-0.2271,-0.229,-0.2317,-0.2335,-0.2337,-0.2368,-0.2341,-0.2335,-0.2297,-0.234,-0.2297,-0.2295,-0.2306,-0.2305,-0.2304,-0.2303,0,0,-0.1817,-0.1914,-0.1924,-0.196,-0.2041,-0.2069,-0.2139,-0.2196,-0.2231,-0.229,-0.2325,-0.2378,-0.2386,-0.2393,-0.2399,-0.24,-0.2407,-0.2384,-0.2382,-0.234,-0.2369,-0.2211,-0.2192,-0.2412,-0.2412,-0.2412,-0.233,0,-0.1833,-0.1904,-0.1954,-0.2026,-0.2064,-0.2126,-0.2179,-0.2239,-0.2286,-0.233,-0.2358,-0.2396,-0.2408,-0.2425,-0.2433,-0.2417,-0.2405,-0.2428,-0.234,-0.2336,-0.2184,-0.2186,-0.2413,-0.2327,-0.2327,-0.2326,-0.2326,0,-0.1835,-0.1887,-0.196,-0.2048,-0.2071,-0.2123,-0.2202,-0.2256,-0.2324,-0.236,-0.2402,-0.2421,-0.245,-0.2446,-0.2431,-0.2449,-0.2415,-0.2391,-0.2387,-0.2211,-0.2173,-0.2277,-0.2321,-0.2321,-0.2321,-0.2322,-0.2322,0,-0.1778,-0.1882,-0.194,-0.1974,-0.2082,-0.2129,-0.2187,-0.2266,-0.2304,-0.2376,-0.2398,-0.2437,-0.2447,-0.2434,-0.2406,-0.2424,-0.2357,-0.237,-0.2186,-0.2174,-0.2313,-0.231,-0.2336,-0.2336,-0.2336,-0.2336,-0.2336,0,-0.1751,-0.1799,-0.1923,-0.1954,-0.2015,-0.2106,-0.2166,-0.2228,-0.2305,-0.2325,-0.2406,-0.2399,-0.2447,-0.242,-0.2396,-0.2267,-0.2346,-0.2173,-0.2138,-0.2343,-0.2345,-0.231,-0.2308,-0.2333,-0.2334,-0.2334,-0.2335,0,-0.1667,-0.1758,-0.1822,-0.1949,-0.199,-0.2029,-0.2145,-0.2177,-0.2268,-0.2293,-0.2316,-0.2372,-0.2326,-0.2331,-0.2287,-0.2219,-0.2136,-0.2067,-0.2261,-0.2243,-0.1963,-0.1966,-0.1851,-0.1845,-0.184,-0.1835,-0.1831,0,-0.1625,-0.1654,-0.179,-0.1828,-0.1891,-0.1971,-0.2018,-0.2138,-0.2164,-0.2242,-0.2228,-0.2229,-0.2238,-0.2034,-0.2074,-0.1985,-0.1965,-0.1915,-0.1961,-0.1932,-0.1912,-0.1923,-0.1933,-0.1823,-0.1821,-0.182,-0.1818,0,-0.1531,-0.1592,-0.1646,-0.1722,-0.1788,-0.1841,-0.192,-0.192,-0.2031,-0.2139,-0.2065,-0.202,-0.195,-0.1906,-0.1838,-0.1788,-0.1953,-0.1858,-0.187,-0.1913,-0.1897,-0.1884,-0.19,-0.18,-0.1802,-0.1804,-0.1805,0,-0.1451,-0.146,-0.1537,-0.1581,-0.1662,-0.1672,-0.1737,-0.1754,-0.179,-0.1894,-0.1856,-0.1858,-0.1915,-0.1798,-0.1743,-0.1672,-0.1656,-0.1619,-0.1643,-0.1664,-0.1642,-0.1596,-0.1356,0,0,0,0,0,-0.136,-0.1354,-0.1388,-0.1424,-0.1496,-0.153,-0.1647,-0.1716,-0.1826,-0.1722,-0.1785,-0.1711,-0.1617,-0.1626,-0.1509,-0.1656,-0.1666,-0.1516,-0.1638,-0.1696,-0.1718,-0.1711,0,0,0,0,0,0,-0.13,-0.133,-0.1331,-0.1272,-0.1261,-0.1311,-0.1374,-0.1459,-0.1418,-0.1539,-0.1491,-0.159,-0.1519,-0.1626,-0.1458,-0.1462,-0.1502,-0.154,-0.1535,-0.1684,-0.1704,-0.1721,-0.1721,0,0,0,0,0]},{"header":{"parameterUnit":"m.s-1","parameterCategory":2,"la1":30.2991,"la2":30.254,"lo1":-89.0895,"lo2":-89.0444,"dy":0.0017,"dx":0.0017,"nx":28,"ny":28,"refTime":"2024-05-24T09:00:00:Z","depth":"4","parameterNumber":3,"parameterNumberName":"V-component_of_CURRENTS"},"data":[0,0,0,0,0,0,0,0,0,0,0,0,0,0,0,0,0,0,0,0,0,0,0,0,0,0,0,0,0,0,0,0,0,0,0,0,0,0,0,0,0,0,0,0,0,0,0,0,0,0,0,0,0,0,0,0,0,0,-0.0229,-0.0228,0,-0.0168,-0.0168,-0.0167,-0.0131,-0.0131,-0.0131,-0.0131,-0.0028,-0.0026,-0.0023,0,0,0,0,0,0,0,0,0,0,0,0,0,-0.0271,-0.027,-0.0229,-0.0228,-0.0227,-0.0169,-0.0168,-0.0167,-0.0131,-0.0131,-0.0131,-0.0131,-0.0029,-0.0026,-0.0023,0,0,0,0,0,0,0,0,0,0,0,0,0,-0.0234,-0.027,-0.0229,-0.0204,-0.0201,-0.0169,-0.0168,-0.0166,-0.0131,-0.0131,-0.0131,-0.0131,-0.003,-0.0026,-0.0022,0.0002,0,0,-0.001,-0.0008,0,0,0,0,0,0,0,0,-0.0237,-0.0233,-0.0208,-0.0205,-0.0202,-0.0158,-0.0145,-0.0109,-0.0131,-0.0156,-0.0131,-0.0131,-0.0069,-0.0062,-0.0049,0.0007,0.0011,-0.0009,-0.0007,-0.0005,-0.0004,0,0,0,0,0,0,0,-0.0239,-0.0235,-0.0203,-0.0207,-0.0204,-0.0181,-0.0176,-0.0138,-0.0112,-0.0154,-0.0151,-0.0147,-0.0067,-0.0053,-0.0046,0.0012,-0.001,-0.0006,-0.0003,-0.0002,0.0091,0.0091,0,0,0,0,0,0,-0.0252,-0.0238,-0.0205,-0.0202,-0.0221,-0.0181,-0.0175,-0.0171,-0.0113,-0.0105,-0.0147,-0.0146,-0.006,-0.0051,-0.0042,-0.0018,-0.0005,-0.0001,0.0001,0.0091,0.0091,0.0091,0,0,0,0,0,0,-0.0253,-0.0249,-0.0208,-0.0219,-0.0213,-0.018,-0.0176,-0.017,-0.016,-0.0108,-0.0099,-0.0144,-0.006,-0.0048,-0.0011,-0.0014,0.0,0.0004,0.0091,0.0091,0.0091,0.0035,0,0,0,0,0,0,-0.0254,-0.025,-0.0255,-0.022,-0.0212,-0.0196,-0.0176,-0.0169,-0.0158,-0.0155,-0.0102,-0.0092,-0.0059,-0.0017,-0.0007,-0.0008,0.0007,0.0091,0.0091,0.0091,0.0036,0.0033,0.003,0,0,0,0,0,-0.0256,-0.0261,-0.0255,-0.0251,-0.0219,-0.0196,-0.019,-0.0166,-0.0158,-0.0156,-0.0118,-0.0094,-0.001,-0.0014,-0.0002,-0.0002,0.0091,0.0091,0.0091,0.0038,0.0034,0.003,0,0,0,0,0,0,-0.028,-0.0257,-0.025,-0.0248,-0.0228,-0.0191,-0.0189,-0.0171,-0.014,-0.0139,-0.009,-0.0077,-0.0049,-0.0015,-0.0021,0.0025,0.0043,0.0046,-0.0001,-0.0005,-0.0008,-0.0023,0.0011,0,0,0,0,0,-0.0289,-0.029,-0.0261,-0.0262,-0.0254,-0.0223,-0.0213,-0.0196,-0.0164,-0.0151,-0.0115,-0.0074,-0.0038,-0.0015,0.0019,0.005,0.0085,0.0057,0.0054,0.0051,0.0047,0.0102,0.0103,0.0091,0.0091,0.0091,0,0,-0.0299,-0.0288,-0.0288,-0.0268,-0.0251,-0.0246,-0.0217,-0.0205,-0.0199,-0.0144,-0.0125,-0.0087,-0.0034,-0.0005,0.0011,0.0024,0.0071,0.0051,0.0047,0.0046,0.0103,0.0104,0.0105,0.0091,0.0091,0.0091,0,0,-0.0323,-0.031,-0.032,-0.0307,-0.0288,-0.0267,-0.0267,-0.0234,-0.0218,-0.0193,-0.0154,-0.0116,-0.0063,-0.0024,0.0003,0.0004,0.0047,0.0011,-0.001,0.0042,0.0044,0.0046,0.0082,0.0087,0.0015,0.0015,0.0015,0,-0.0338,-0.0347,-0.0319,-0.0324,-0.0319,-0.0281,-0.0289,-0.0264,-0.0224,-0.021,-0.0196,-0.0114,-0.0071,-0.0026,-0.0027,-0.0003,0.0027,-0.0001,0.0037,0.004,0.0043,0.008,0.0087,0.0012,0.0012,0.0013,0.0013,0,-0.0366,-0.0375,-0.0379,-0.0375,-0.0362,-0.0364,-0.0329,-0.0315,-0.0291,-0.0261,-0.0219,-0.0155,-0.0106,-0.0086,-0.0055,-0.0016,-0.0002,0.0021,0.0045,0.004,0.008,0.0088,0.0008,0.0009,0.001,0.0011,0,0,-0.0397,-0.0401,-0.0406,-0.0418,-0.0392,-0.0387,-0.0375,-0.0351,-0.0343,-0.0294,-0.0272,-0.0204,-0.0167,-0.0134,-0.0085,-0.0036,0.0008,-0.0005,-0.0001,0.0024,0.0113,0.0105,0.0113,0.0037,0.0038,0.0039,0.0129,0,-0.0432,-0.0467,-0.045,-0.0476,-0.0489,-0.0451,-0.0442,-0.0412,-0.0374,-0.0341,-0.0267,-0.0229,-0.0185,-0.0161,-0.0105,-0.0018,0.0028,-0.002,0.0119,0.0123,0.0111,0.0122,0.0044,0.0135,0.0137,0.0139,0.014,0,-0.0467,-0.0487,-0.0527,-0.0536,-0.0537,-0.0542,-0.0523,-0.0509,-0.0446,-0.0414,-0.0354,-0.0293,-0.0212,-0.0177,-0.0031,-0.0064,0.0013,0.0081,0.0087,0.0104,0.013,0.0145,0.0155,0.0154,0.0152,0.0151,0.015,0,-0.0512,-0.054,-0.0579,-0.0582,-0.058,-0.059,-0.0584,-0.0538,-0.0523,-0.0459,-0.0433,-0.033,-0.0272,-0.016,-0.0019,-0.0024,0.014,0.0155,0.022,0.022,0.0225,0.0222,0.0251,0.0251,0.0251,0.025,0.025,0,-0.0553,-0.0585,-0.0611,-0.063,-0.0672,-0.0646,-0.0666,-0.064,-0.0592,-0.0565,-0.0477,-0.042,-0.0264,-0.0147,-0.0029,0.0121,0.0138,0.0216,0.0246,0.0198,0.0191,0.023,0.0227,0.0254,0.0253,0.0252,0.0252,0,-0.0592,-0.061,-0.0659,-0.0685,-0.0697,-0.0727,-0.0731,-0.0731,-0.0681,-0.0639,-0.0619,-0.048,-0.0327,-0.0172,0.0023,0.0106,0.025,0.0297,0.0224,0.0249,0.0293,0.0286,0.0372,0.0373,0.0373,0.0374,0.0374,0,-0.0613,-0.0644,-0.0708,-0.0747,-0.0766,-0.0804,-0.0821,-0.0785,-0.0766,-0.0663,-0.0633,-0.049,-0.0383,-0.0109,0.0041,0.0253,0.0282,0.0341,0.0322,0.0287,0.0308,0.03,0.0292,0.0375,0.0375,0.0375,0.0375,0,-0.0648,-0.0678,-0.072,-0.0806,-0.085,-0.0885,-0.0897,-0.0882,-0.0814,-0.0775,-0.0617,-0.0468,-0.0296,-0.0096,0.0063,0.0217,0.0294,0.0346,0.0346,0.0329,0.0291,0.0309,0.0301,0.0377,0.0376,0.0376,0.0376,0,-0.0673,-0.0719,-0.0783,-0.085,-0.0914,-0.0938,-0.094,-0.0884,-0.0846,-0.0708,-0.0655,-0.0457,-0.0336,-0.0113,0.0041,0.0181,0.0212,0.0247,0.0253,0.0253,0.0187,0.0119,0.018,0,0,0,0,0,-0.0691,-0.0744,-0.0818,-0.0893,-0.0954,-0.0981,-0.0972,-0.0951,-0.0877,-0.0765,-0.0699,-0.0526,-0.0271,-0.0154,-0.0013,0.0017,0.0204,0.0182,0.0239,0.0385,0.0384,0.0325,0,0,0,0,0,0,-0.0707,-0.0783,-0.0821,-0.0906,-0.0958,-0.1011,-0.1001,-0.0952,-0.0865,-0.077,-0.0624,-0.052,-0.0272,-0.0358,-0.0022,0.0021,0.0072,0.0309,0.0312,0.0386,0.0385,0.0383,0.0323,0,0,0,0,0]}]]